Station MDRM1 - Mt. Desert Rock, ME Image indicating link to RSS feed of recent meteorological observations for station MDRM1


Conditions at MDRM1 as of
(2:00 pm EDT)
1800 GMT on 06/05/2023:
     

Click on the graph icon in the table below to see a time series plot of the last five days of that observation.

5-day plot - Wind Direction Wind Direction (WDIR):NNW ( 340 deg true )
5-day plot - Wind Speed Wind Speed (WSPD):7.2 m/s
5-day plot - Wind Gust Wind Gust (GST):7.7 m/s
5-day plot - Atmospheric Pressure Atmospheric Pressure (PRES):1006.6 mb
5-day plot - Pressure Tendency Pressure Tendency (PTDY): -1.3 mb ( Falling )
5-day plot - Air Temperature Air Temperature (ATMP): 8.8 °C
5-day plot - Dew Point Dew Point (DEWP): 8.8 °C
5-day plot - Wind Chill Wind Chill (CHILL): 5.3 °C
5-day plot - Wind Speed at 10 Meters Wind Speed at 10 meters (WSPD10M): 7 m/s
5-day plot - Wind Speed at 20 Meters Wind Speed at 20 meters (WSPD20M): 7 m/s
5-day plot -  Wind Speed, Wind Gust and Atmospheric Pressure Combined plot of Wind Speed, Gust, and Air Pressure
Continuous Winds
TIME
(EDT)
5-day plot - Wind Direction WDIR 5-day plot - Wind Speed WSPD
2:00 pmNNW ( 339 deg ) 7.2 m/s
1:50 pmNNW ( 340 deg ) 6.7 m/s
1:40 pmNNW ( 343 deg ) 7.2 m/s
1:30 pmNNW ( 342 deg ) 6.7 m/s
1:20 pmNNW ( 343 deg ) 7.2 m/s
1:10 pmNNW ( 342 deg ) 7.2 m/s
 
Peak gust during the measurement hour
TIME
(EDT)
5-day plot - Gust Direction GDR 5-day plot - Gust Speed GST
1:31 pmNNW ( 340 deg ) 8.8 m/s
Previous observations
TIME
(EDT)
5-day plot - Wind Direction
WDIR
 
5-day plot - Wind Speed
WSPD
m/s
5-day plot - Wind Gust
GST
m/s
5-day plot - Wave Height
WVHT
m
5-day plot - Dominant Wave Period
DPD
sec
5-day plot - Average Wave Period
APD
sec
5-day plot - Mean Wave Direction
MWD
 
5-day plot - Atmospheric Pressure
PRES
mb
5-day plot - Pressure Tendency
PTDY
mb
5-day plot - Air Temperature
ATMP
°C
5-day plot - Water Temperature
WTMP
°C
5-day plot - Dew Point
DEWP
°C
5-day plot - Salinity
SAL
psu
5-day plot - Visibility
VIS
km
5-day plot - Tide (above MLLW)
TIDE
m
2023-06-05 01:00 pmNNW 8 8----1006.9 -1.6 8.8- 8.8---
2023-06-05 12:00 pm N 8 9----1007.4 -1.2 8.7- 8.7---
2023-06-05 11:00 am N 9 10----1007.9 -1.2 8.5- 8.5---
2023-06-05 10:00 am N 10 11----1008.5 -0.8 8.2- 8.2---
2023-06-05 09:00 am N 11 12----1008.6 -0.9 8.1- 8.1---
2023-06-05 08:00 am N 11 12----1009.1 -0.6 7.8- 7.8---
2023-06-05 07:00 am N 12 13----1009.3 -0.8 7.8- 7.8---
2023-06-05 06:00 am N 12 13----1009.5 -1.6 7.7- 7.7---
2023-06-05 05:00 am N 11 12----1009.7 -2.0 7.7- 7.7---
2023-06-05 04:00 am N 11 12----1010.1 -2.1 7.7- 7.7---
2023-06-05 03:00 am N 10 11----1011.1 -1.7 7.7- 7.7---
2023-06-05 02:00 am N 11 12----1011.7 -1.6 7.9- 7.9---
2023-06-05 01:00 am N 10 11----1012.2 -1.7 8.2- 8.2---
2023-06-05 12:00 am N 11 12----1012.8 -1.5 8.3- 8.3---
2023-06-04 11:00 pm N 11 11----1013.3 -1.0 8.4- 8.4---
2023-06-04 10:00 pm N 11 12----1013.9 +0.0 8.4- 8.4---
2023-06-04 09:00 pm N 10 11----1014.3 +0.0 8.5- 8.5---
2023-06-04 08:00 pm N 11 12----1014.3 +0.3 8.5- 8.5---
2023-06-04 07:00 pmNNE 13 14----1014.1 -0.4 8.4- 8.4---
2023-06-04 06:00 pmNNE 13 15----1014.2 -0.5 8.6- 8.6---
2023-06-04 05:00 pmNNE 15 18----1014.0 -0.6 8.5- 8.5---
2023-06-04 04:00 pmNNE 15 16----1014.5 -0.6 8.6- 8.6---
2023-06-04 03:00 pmNNE 14 16----1014.7 -0.6 8.7- 8.7---